| time (UTC) | temp C | wind direction | speed KPH | gust KPH | rain 1hr cm | rain 24hr cm | rain mn cm | humidity % | barometer mb |
| 20260504160227 | 11 | 258 | 17.7 | 24.1 | 0.00 | 0.00 | 0.00 | 60 | 1001.4 |
| 20260504150653 | 11 | 307 | 16.1 | 37.0 | 0.00 | 0.00 | 0.00 | 56 | 1001.3 |
| 20260504150150 | 11 | 319 | 12.9 | 35.4 | 0.00 | 0.00 | 0.00 | 56 | 1001.3 |
| 20260504141119 | 12 | 274 | 14.5 | 27.4 | 0.00 | 0.00 | 0.00 | 53 | 1000.4 |
| 20260504140615 | 12 | 241 | 9.7 | 29.0 | 0.00 | 0.00 | 0.00 | 53 | 1000.4 |
| 20260504140111 | 12 | 278 | 16.1 | 22.5 | 0.00 | 0.00 | 0.00 | 53 | 1000.5 |
| 20260504130539 | 11 | 180 | 6.4 | 14.5 | 0.00 | 0.00 | 0.00 | 60 | 1000.9 |
| 20260504110427 | 3 | 54 | 6.4 | 9.7 | 0.00 | 0.00 | 0.00 | 93 | 1002.2 |
| 20260504100343 | 2 | 71 | 6.4 | 9.7 | 0.00 | 0.00 | 0.00 | 91 | 1002.2 |
| 20260504081737 | 1 | 82 | 4.8 | 6.4 | 0.00 | 0.00 | 0.00 | 94 | 1002.5 |
| 20260504081233 | 1 | 101 | 1.6 | 8.0 | 0.00 | 0.00 | 0.00 | 93 | 1002.4 |
| 20260504080730 | 1 | 104 | 4.8 | 4.8 | 0.00 | 0.00 | 0.00 | 94 | 1002.4 |
| 20260504080226 | 1 | 65 | 3.2 | 4.8 | 0.00 | 0.00 | 0.00 | 93 | 1002.3 |
| 20260504070154 | 2 | 148 | 3.2 | 4.8 | 0.00 | 0.00 | 0.00 | 86 | 1002.7 |
| 20260504060119 | -1 | 75 | 1.6 | 3.2 | 0.00 | 0.00 | 0.00 | 92 | 1002.4 |
| 20260504050548 | -1 | 65 | 1.6 | 3.2 | 0.00 | 0.00 | 0.00 | 92 | 1002.5 |
| 20260504045541 | -1 | 44 | 1.6 | 3.2 | 0.00 | 0.00 | 0.00 | 93 | 1002.7 |
| 20260504045037 | -2 | 74 | 1.6 | 4.8 | 0.00 | 0.00 | 0.00 | 93 | 1002.8 |
| 20260504044534 | -2 | 110 | 1.6 | 3.2 | 0.00 | 0.00 | 0.00 | 93 | 1002.7 |
| 20260504044031 | -2 | 354 | 0.0 | 1.6 | 0.00 | 0.00 | 0.00 | 93 | 1002.7 |
| 20260504043528 | -2 | 48 | 0.0 | 1.6 | 0.00 | 0.00 | 0.00 | 93 | 1002.7 |
| 20260504043026 | -2 | 57 | 0.0 | 1.6 | 0.00 | 0.00 | 0.00 | 93 | 1002.8 |
| 20260504042522 | -2 | 53 | 1.6 | 3.2 | 0.00 | 0.00 | 0.00 | 93 | 1002.8 |
| 20260504042020 | -2 | 22 | 0.0 | 1.6 | 0.00 | 0.00 | 0.00 | 93 | 1003.1 |
| 20260504041515 | -2 | 41 | 3.2 | 3.2 | 0.00 | 0.00 | 0.00 | 93 | 1002.8 |
| 20260504041011 | -2 | 74 | 3.2 | 3.2 | 0.00 | 0.00 | 0.00 | 92 | 1003.0 |
| 20260504040509 | -2 | 26 | 1.6 | 1.6 | 0.00 | 0.00 | 0.00 | 92 | 1003.0 |
| 20260504040005 | -2 | 93 | 0.0 | 1.6 | 0.00 | 0.00 | 0.00 | 92 | 1002.8 |
| 20260504035503 | -2 | 352 | 0.0 | 3.2 | 0.00 | 0.00 | 0.00 | 92 | 1002.8 |
| 20260504034959 | -2 | 16 | 0.0 | 3.2 | 0.00 | 0.00 | 0.00 | 92 | 1002.8 |
| 20260504034457 | -2 | 76 | 0.0 | 3.2 | 0.00 | 0.00 | 0.00 | 92 | 1002.8 |
| 20260504033953 | -2 | 34 | 3.2 | 3.2 | 0.00 | 0.00 | 0.00 | 92 | 1002.9 |
| 20260504033451 | -2 | 52 | 1.6 | 3.2 | 0.00 | 0.00 | 0.00 | 92 | 1003.0 |
| 20260504032948 | -2 | 353 | 0.0 | 1.6 | 0.00 | 0.00 | 0.00 | 92 | 1002.9 |
| 20260504032445 | -2 | 16 | 1.6 | 3.2 | 0.00 | 0.00 | 0.00 | 91 | 1002.6 |
| 20260504031942 | -2 | 55 | 0.0 | 3.2 | 0.00 | 0.00 | 0.00 | 91 | 1002.9 |
| 20260504031439 | -2 | 95 | 1.6 | 3.2 | 0.00 | 0.00 | 0.00 | 91 | 1002.9 |
| 20260504030935 | -2 | 60 | 0.0 | 3.2 | 0.00 | 0.00 | 0.00 | 91 | 1002.8 |
| 20260504030432 | -2 | 315 | 0.0 | 3.2 | 0.00 | 0.00 | 0.00 | 91 | 1003.0 |
| 20260504025928 | -2 | 51 | 1.6 | 1.6 | 0.00 | 0.00 | 0.00 | 90 | 1002.9 |
| 20260504025425 | -1 | 333 | 0.0 | 3.2 | 0.00 | 0.00 | 0.00 | 90 | 1003.0 |
| 20260504024922 | -1 | 20 | 1.6 | 3.2 | 0.00 | 0.00 | 0.00 | 90 | 1003.0 |
| 20260504024419 | -1 | 70 | 3.2 | 3.2 | 0.00 | 0.00 | 0.00 | 90 | 1002.8 |
| 20260504023916 | -1 | 308 | 1.6 | 3.2 | 0.00 | 0.00 | 0.00 | 90 | 1002.9 |
| 20260504023413 | -1 | 336 | 0.0 | 1.6 | 0.00 | 0.00 | 0.00 | 90 | 1003.0 |
| 20260504022908 | -1 | 305 | 1.6 | 1.6 | 0.00 | 0.00 | 0.00 | 89 | 1002.9 |
| 20260504022405 | -1 | 57 | 3.2 | 3.2 | 0.00 | 0.00 | 0.00 | 89 | 1003.0 |
| 20260504021902 | -1 | 30 | 1.6 | 3.2 | 0.00 | 0.00 | 0.00 | 88 | 1002.8 |
| 20260504021359 | -1 | 22 | 0.0 | 0.0 | 0.00 | 0.00 | 0.00 | 88 | 1003.0 |
| 20260504020856 | -1 | 329 | 0.0 | 1.6 | 0.00 | 0.00 | 0.00 | 87 | 1003.1 |
| 20260504020353 | 0 | 48 | 0.0 | 1.6 | 0.00 | 0.00 | 0.00 | 87 | 1003.1 |
| 20260504015849 | 0 | 35 | 1.6 | 3.2 | 0.00 | 0.00 | 0.00 | 87 | 1003.1 |
| 20260504015345 | 0 | 329 | 3.2 | 3.2 | 0.00 | 0.00 | 0.00 | 86 | 1003.2 |
| 20260504014841 | 0 | 24 | 1.6 | 3.2 | 0.00 | 0.00 | 0.00 | 87 | 1003.0 |
| 20260504014337 | 0 | 291 | 0.0 | 4.8 | 0.00 | 0.00 | 0.00 | 86 | 1003.1 |
| 20260504013835 | 0 | 272 | 3.2 | 3.2 | 0.00 | 0.00 | 0.00 | 85 | 1003.0 |
| 20260504013333 | 0 | 331 | 1.6 | 3.2 | 0.00 | 0.00 | 0.00 | 84 | 1002.9 |
| 20260504012829 | 0 | 0 | 0.0 | 3.2 | 0.00 | 0.00 | 0.00 | 83 | 1003.0 |
| 20260504012327 | 0 | 299 | 0.0 | 3.2 | 0.00 | 0.00 | 0.00 | 82 | 1002.8 |
| 20260504011824 | 0 | 25 | 0.0 | 3.2 | 0.00 | 0.00 | 0.00 | 81 | 1002.7 |
| 20260504011321 | 0 | 353 | 0.0 | 3.2 | 0.00 | 0.00 | 0.00 | 81 | 1002.7 |
| 20260504010817 | 1 | 40 | 3.2 | 3.2 | 0.00 | 0.00 | 0.00 | 80 | 1002.7 |
| 20260504010312 | 1 | 320 | 1.6 | 3.2 | 0.00 | 0.00 | 0.00 | 81 | 1002.7 |
| 20260504005809 | 1 | 312 | 0.0 | 1.6 | 0.00 | 0.00 | 0.00 | 81 | 1002.7 |
| 20260504005306 | 1 | 26 | 0.0 | 3.2 | 0.00 | 0.00 | 0.00 | 80 | 1002.6 |
| 20260504004804 | 1 | 338 | 0.0 | 3.2 | 0.00 | 0.00 | 0.00 | 80 | 1002.7 |
| 20260504004301 | 1 | 330 | 0.0 | 1.6 | 0.00 | 0.00 | 0.00 | 79 | 1002.5 |
| 20260504003757 | 1 | 39 | 3.2 | 3.2 | 0.00 | 0.00 | 0.00 | 78 | 1002.4 |
| 20260504003254 | 1 | 345 | 0.0 | 1.6 | 0.00 | 0.00 | 0.00 | 78 | 1002.4 |
| 20260504002751 | 2 | 38 | 0.0 | 3.2 | 0.00 | 0.00 | 0.00 | 76 | 1002.5 |
| 20260504002248 | 2 | 287 | 0.0 | 1.6 | 0.00 | 0.00 | 0.00 | 75 | 1002.5 |
| 20260504001746 | 2 | 154 | 0.0 | 3.2 | 0.00 | 0.00 | 0.00 | 70 | 1002.4 |
| 20260504001243 | 3 | 339 | 0.0 | 1.6 | 0.00 | 0.00 | 0.00 | 72 | 1002.5 |
| 20260504000739 | 3 | 157 | 0.0 | 3.2 | 0.00 | 0.00 | 0.00 | 69 | 1002.3 |
| 20260504000236 | 3 | 182 | 1.6 | 3.2 | 0.00 | 0.00 | 0.00 | 66 | 1002.4 |
| 20260503235735 | 3 | 335 | 0.0 | 1.6 | 0.00 | 0.00 | 0.00 | 70 | 1002.3 |
| 20260503235231 | 4 | 337 | 0.0 | 0.0 | 0.00 | 0.00 | 0.00 | 67 | 1002.6 |
| 20260503234729 | 5 | 315 | 0.0 | 3.2 | 0.00 | 0.00 | 0.00 | 65 | 1002.1 |
| 20260503234227 | 5 | 269 | 0.0 | 3.2 | 0.00 | 0.00 | 0.00 | 59 | 1002.2 |
| 20260503233724 | 6 | 277 | 4.8 | 6.4 | 0.00 | 0.00 | 0.00 | 52 | 1002.0 |
| 20260503233219 | 6 | 156 | 1.6 | 6.4 | 0.00 | 0.00 | 0.00 | 52 | 1002.3 |
| 20260503232716 | 6 | 278 | 4.8 | 8.0 | 0.00 | 0.00 | 0.00 | 50 | 1002.1 |
| 20260503232213 | 7 | 271 | 8.0 | 9.7 | 0.00 | 0.00 | 0.00 | 47 | 1002.4 |
| 20260503231712 | 7 | 279 | 12.9 | 12.9 | 0.00 | 0.00 | 0.00 | 47 | 1002.2 |
| 20260503231208 | 7 | 279 | 6.4 | 8.0 | 0.00 | 0.00 | 0.00 | 47 | 1002.2 |
| 20260503230704 | 7 | 238 | 3.2 | 6.4 | 0.00 | 0.00 | 0.00 | 45 | 1002.0 |
| 20260503230202 | 7 | 261 | 9.7 | 17.7 | 0.00 | 0.00 | 0.00 | 45 | 1002.0 |
| 20260503225659 | 8 | 285 | 9.7 | 16.1 | 0.00 | 0.00 | 0.00 | 46 | 1002.0 |
| 20260503225154 | 7 | 268 | 6.4 | 11.3 | 0.00 | 0.00 | 0.00 | 46 | 1002.2 |
| 20260503224652 | 7 | 231 | 6.4 | 9.7 | 0.00 | 0.00 | 0.00 | 47 | 1002.3 |
| 20260503224149 | 7 | 249 | 6.4 | 6.4 | 0.00 | 0.00 | 0.00 | 47 | 1002.1 |
| 20260503223647 | 7 | 300 | 3.2 | 19.3 | 0.00 | 0.00 | 0.00 | 45 | 1002.0 |
| 20260503223143 | 8 | 264 | 9.7 | 16.1 | 0.00 | 0.00 | 0.00 | 44 | 1002.1 |
| 20260503222640 | 8 | 272 | 6.4 | 11.3 | 0.00 | 0.00 | 0.00 | 46 | 1001.9 |
| 20260503222138 | 7 | 281 | 14.5 | 17.7 | 0.00 | 0.00 | 0.00 | 47 | 1001.9 |
| 20260503221636 | 7 | 298 | 8.0 | 22.5 | 0.00 | 0.00 | 0.00 | 47 | 1002.0 |
| 20260503221133 | 7 | 269 | 6.4 | 6.4 | 0.00 | 0.00 | 0.00 | 48 | 1001.9 |
| 20260503220630 | 7 | 269 | 9.7 | 11.3 | 0.00 | 0.00 | 0.00 | 48 | 1001.9 |
| 20260503220126 | 7 | 299 | 6.4 | 6.4 | 0.00 | 0.00 | 0.00 | 49 | 1001.9 |
| 20260503215623 | 7 | 54 | 3.2 | 16.1 | 0.00 | 0.00 | 0.00 | 49 | 1001.9 |
| 20260503215120 | 7 | 357 | 12.9 | 25.7 | 0.00 | 0.00 | 0.00 | 49 | 1001.9 |
| 20260503214619 | 7 | 318 | 11.3 | 19.3 | 0.00 | 0.00 | 0.00 | 49 | 1001.9 |
| 20260503214114 | 7 | 324 | 9.7 | 20.9 | 0.00 | 0.00 | 0.00 | 48 | 1002.0 |
| 20260503213609 | 7 | 264 | 4.8 | 8.0 | 0.00 | 0.00 | 0.00 | 48 | 1001.9 |
| 20260503213104 | 7 | 275 | 8.0 | 12.9 | 0.00 | 0.00 | 0.00 | 49 | 1002.2 |
| 20260503212602 | 7 | 335 | 9.7 | 17.7 | 0.00 | 0.00 | 0.00 | 47 | 1002.2 |
| 20260503212059 | 7 | 5 | 9.7 | 24.1 | 0.00 | 0.00 | 0.00 | 49 | 1002.0 |
| 20260503211556 | 7 | 278 | 3.2 | 12.9 | 0.00 | 0.00 | 0.00 | 50 | 1002.2 |
| 20260503211051 | 7 | 262 | 8.0 | 17.7 | 0.00 | 0.00 | 0.00 | 50 | 1002.2 |
| 20260503210549 | 7 | 303 | 17.7 | 22.5 | 0.00 | 0.00 | 0.00 | 50 | 1002.1 |
| 20260503210044 | 7 | 279 | 9.7 | 14.5 | 0.00 | 0.00 | 0.00 | 52 | 1001.9 |
| 20260503205541 | 6 | 276 | 8.0 | 29.0 | 0.00 | 0.00 | 0.00 | 51 | 1002.1 |
| 20260503205037 | 7 | 281 | 20.9 | 27.4 | 0.00 | 0.00 | 0.00 | 50 | 1002.1 |
| 20260503204534 | 7 | 252 | 8.0 | 20.9 | 0.00 | 0.00 | 0.00 | 51 | 1002.0 |
| 20260503204031 | 7 | 278 | 14.5 | 29.0 | 0.00 | 0.00 | 0.00 | 49 | 1001.8 |
| 20260503203528 | 7 | 222 | 22.5 | 35.4 | 0.00 | 0.00 | 0.00 | 48 | 1001.9 |
| 20260503203025 | 7 | 271 | 12.9 | 17.7 | 0.00 | 0.00 | 0.00 | 50 | 1001.8 |
| 20260503202523 | 7 | 282 | 6.4 | 24.1 | 0.00 | 0.00 | 0.00 | 50 | 1001.8 |
| 20260503202021 | 7 | 256 | 16.1 | 25.7 | 0.00 | 0.00 | 0.00 | 49 | 1002.0 |
| 20260503201519 | 7 | 266 | 16.1 | 19.3 | 0.00 | 0.00 | 0.00 | 49 | 1001.7 |
| 20260503201016 | 7 | 279 | 16.1 | 19.3 | 0.00 | 0.00 | 0.00 | 48 | 1001.6 |
| 20260503200512 | 7 | 274 | 11.3 | 24.1 | 0.00 | 0.00 | 0.00 | 48 | 1001.9 |
| 20260503200009 | 7 | 264 | 12.9 | 33.8 | 0.00 | 0.00 | 0.00 | 48 | 1002.1 |
| 20260503195506 | 7 | 241 | 14.5 | 30.6 | 0.00 | 0.00 | 0.00 | 46 | 1001.8 |
| 20260503195002 | 8 | 243 | 6.4 | 8.0 | 0.00 | 0.00 | 0.00 | 47 | 1001.7 |
| 20260503194500 | 8 | 281 | 9.7 | 22.5 | 0.00 | 0.00 | 0.00 | 46 | 1001.8 |
| 20260503193955 | 7 | 298 | 12.9 | 30.6 | 0.00 | 0.00 | 0.00 | 45 | 1001.8 |
| 20260503193451 | 7 | 265 | 14.5 | 20.9 | 0.00 | 0.00 | 0.00 | 47 | 1002.0 |
| 20260503192946 | 7 | 279 | 8.0 | 12.9 | 0.00 | 0.00 | 0.00 | 46 | 1001.8 |
| 20260503192443 | 7 | 319 | 20.9 | 30.6 | 0.00 | 0.00 | 0.00 | 44 | 1002.0 |
| 20260503191938 | 7 | 304 | 14.5 | 29.0 | 0.00 | 0.00 | 0.00 | 44 | 1002.0 |
| 20260503191436 | 7 | 330 | 17.7 | 27.4 | 0.00 | 0.00 | 0.00 | 45 | 1002.1 |
| 20260503190932 | 7 | 274 | 4.8 | 20.9 | 0.00 | 0.00 | 0.00 | 49 | 1002.0 |
| 20260503190430 | 7 | 335 | 9.7 | 17.7 | 0.00 | 0.00 | 0.00 | 47 | 1002.1 |
| 20260503185927 | 7 | 319 | 11.3 | 27.4 | 0.00 | 0.00 | 0.00 | 47 | 1002.2 |
| 20260503185423 | 7 | 324 | 1.6 | 19.3 | 0.00 | 0.00 | 0.00 | 47 | 1002.0 |
| 20260503184922 | 7 | 273 | 11.3 | 25.7 | 0.00 | 0.00 | 0.00 | 48 | 1002.2 |
| 20260503184419 | 7 | 292 | 17.7 | 20.9 | 0.00 | 0.00 | 0.00 | 46 | 1001.9 |
| 20260503183916 | 7 | 308 | 11.3 | 19.3 | 0.00 | 0.00 | 0.00 | 48 | 1002.0 |
| 20260503183412 | 7 | 275 | 16.1 | 29.0 | 0.00 | 0.00 | 0.00 | 48 | 1002.0 |
| 20260503182909 | 7 | 308 | 20.9 | 30.6 | 0.00 | 0.00 | 0.00 | 46 | 1001.9 |
| 20260503182409 | 7 | 251 | 6.4 | 29.0 | 0.00 | 0.00 | 0.00 | 47 | 1001.9 |
| 20260503181905 | 7 | 314 | 24.1 | 35.4 | 0.00 | 0.00 | 0.00 | 41 | 1002.1 |
| 20260503181357 | 7 | 248 | 8.0 | 29.0 | 0.00 | 0.00 | 0.00 | 39 | 1001.8 |
| 20260503180853 | 8 | 325 | 9.7 | 25.7 | 0.00 | 0.00 | 0.00 | 41 | 1002.0 |
| 20260503180351 | 8 | 351 | 4.8 | 24.1 | 0.00 | 0.00 | 0.00 | 43 | 1002.0 |
| 20260503175847 | 8 | 254 | 9.7 | 24.1 | 0.00 | 0.00 | 0.00 | 42 | 1001.9 |
| 20260503175345 | 8 | 299 | 4.8 | 29.0 | 0.00 | 0.00 | 0.00 | 45 | 1002.2 |
| 20260503174840 | 7 | 14 | 4.8 | 25.7 | 0.00 | 0.00 | 0.00 | 45 | 1002.2 |
| 20260503174339 | 8 | 252 | 6.4 | 16.1 | 0.00 | 0.00 | 0.00 | 44 | 1002.0 |
| 20260503173834 | 8 | 349 | 12.9 | 19.3 | 0.00 | 0.00 | 0.00 | 45 | 1002.0 |
| 20260503173330 | 7 | 356 | 16.1 | 24.1 | 0.00 | 0.00 | 0.00 | 45 | 1002.3 |
| 20260503172827 | 7 | 293 | 9.7 | 33.8 | 0.00 | 0.00 | 0.00 | 45 | 1002.3 |
| 20260503172325 | 7 | 316 | 14.5 | 20.9 | 0.00 | 0.00 | 0.00 | 47 | 1002.2 |
| 20260503171821 | 7 | 300 | 17.7 | 22.5 | 0.00 | 0.00 | 0.00 | 48 | 1002.3 |
| 20260503171318 | 7 | 322 | 12.9 | 24.1 | 0.00 | 0.00 | 0.00 | 48 | 1002.3 |
| 20260503170815 | 7 | 42 | 3.2 | 22.5 | 0.00 | 0.00 | 0.00 | 48 | 1002.4 |
| 20260503170311 | 7 | 289 | 12.9 | 32.2 | 0.00 | 0.00 | 0.00 | 47 | 1002.4 |